Weather History for Cut Bank, MT

Change the Weather History Date:

Sunday, March 3, 2013

  Actual Average Record
Temperature  
Mean Temperature -1 °C -3 °C  
Max Temperature 6 °C 4 °C 18 °C (1986)
Min Temperature -7 °C -9 °C -35 °C (1960)
Degree Days  
Heating Degree Days 34 38  
Month to date heating degree days 74 114  
Since 1 July heating degree days 5813 6174  
Cooling Degree Days 0 0  
Month to date cooling degree days 0 0  
Year to date cooling degree days 0 0  
Moisture  
Dew Point -7 °C    
Average Humidity 64    
Maximum Humidity 96    
Minimum Humidity 32    
Precipitation  
Precipitation 0.25 mm 0.51 mm 0.71 mm (1938)
Month to date precipitation 0.01 0.04  
Year to date precipitation 0.74 0.45  
Snow  
Snow 0.00 cm - - ()
Snow Depth 0.00 cm    
Sea Level Pressure  
Sea Level Pressure 1010 hPa    
Wind  
Wind Speed 46 km/h (NW)    
Max Wind Speed 82 km/h    
Max Gust Speed 101 km/h    
Visibility 7 kilometers    
Events Fog , Snow    
T = Trace of Precipitation, MM = Missing Value Source: NWS Daily Summary

Daily Weather History Graph

Daily Weather History Graph

Search for Another Location

Airport:

Trip Planner

Search our weather history database for the weather conditions in past years. The results will help you decide how hot, cold, wet, or windy it might be!

Date:

Astronomy

Mar. 03, 2013 Rise Set
Actual Time 7:06 AM MST 6:16 PM MST
Civil Twilight 6:35 AM MST 6:48 PM MST
Nautical Twilight 5:58 AM MST 7:24 PM MST
Astronomical Twilight 5:22 AM MST 8:01 PM MST
Moon 12:30 AM MST (3/3) 9:52 AM MST (3/3)
Length of Visible Light 12h 13m
Length of Day
11h 10m
Waning Gibbous, 63% of the Moon is Illuminated
Mar 3
Waning Gibbous
Mar 4
Last Quarter
Mar 11
New
Mar 19
First Quarter
Mar 27
Full

Hourly Weather History & Observations

Time (MST) Temp. Windchill Dew Point Humidity Pressure Visibility Wind Dir Wind Speed Gust Speed Precip Events Conditions
12:56 AM 3.9 °C 2.6 °C -2.2 °C 65% 1006.7 hPa 16.1 km South 5.6 km/h / 1.5 m/s 25.9 km/h / 7.2 m/s N/A   Clear
1:56 AM 3.3 °C -1.1 °C -1.7 °C 70% 1005.4 hPa 16.1 km WSW 20.4 km/h / 5.7 m/s - N/A   Clear
2:56 AM 2.8 °C -2.4 °C -1.7 °C 73% 1004.9 hPa 16.1 km West 25.9 km/h / 7.2 m/s - N/A   Clear
3:56 AM 3.3 °C -2.1 °C -0.6 °C 76% 1004.0 hPa 16.1 km SW 29.6 km/h / 8.2 m/s 46.3 km/h / 12.9 m/s N/A   Clear
4:56 AM 1.7 °C -2.9 °C -1.7 °C 78% 1003.9 hPa 16.1 km SSW 18.5 km/h / 5.1 m/s - N/A   Clear
5:56 AM 2.8 °C -0.6 °C -2.2 °C 70% 1003.2 hPa 16.1 km SSW 13.0 km/h / 3.6 m/s - N/A   Clear
6:56 AM 2.2 °C -4.7 °C -1.7 °C 76% 1004.0 hPa 16.1 km WSW 44.4 km/h / 12.3 m/s 53.7 km/h / 14.9 m/s N/A   Scattered Clouds
7:56 AM 2.2 °C -5.1 °C -7.8 °C 48% 1003.0 hPa 16.1 km WSW 50.0 km/h / 13.9 m/s 63.0 km/h / 17.5 m/s N/A   Clear
8:56 AM 2.8 °C -5.0 °C -11.7 °C 34% 1002.3 hPa 16.1 km WSW 63.0 km/h / 17.5 m/s 92.6 km/h / 25.7 m/s N/A   Clear
9:56 AM 3.3 °C -4.4 °C -11.1 °C 35% 1003.3 hPa 16.1 km West 64.8 km/h / 18.0 m/s 79.6 km/h / 22.1 m/s N/A   Clear
10:56 AM 3.9 °C -3.6 °C -10.6 °C 34% 1003.0 hPa 16.1 km WSW 64.8 km/h / 18.0 m/s 81.5 km/h / 22.6 m/s N/A   Clear
11:56 AM 3.3 °C -3.8 °C -9.4 °C 39% 1003.1 hPa 16.1 km WSW 53.7 km/h / 14.9 m/s 74.1 km/h / 20.6 m/s N/A   Scattered Clouds
12:56 PM 2.2 °C -4.9 °C -8.3 °C 46% 1005.0 hPa 16.1 km WNW 46.3 km/h / 12.9 m/s 72.2 km/h / 20.1 m/s N/A   Mostly Cloudy
1:02 PM -2.0 °C -10.4 °C -6.0 °C 74% 1003.6 hPa 2.8 km NNW 44.4 km/h / 12.3 m/s 64.8 km/h / 18.0 m/s 0.0 mm Snow Light Snow
1:12 PM -2.0 °C -10.4 °C -4.0 °C 86% 1003.6 hPa 1.2 km NNW 44.4 km/h / 12.3 m/s 59.3 km/h / 16.5 m/s 0.0 mm Snow Light Snow
1:26 PM -2.0 °C -10.3 °C -5.0 °C 80% 1003.9 hPa 2.0 km NW 42.6 km/h / 11.8 m/s 57.4 km/h / 15.9 m/s 0.0 mm Snow Light Snow
1:44 PM -3.0 °C -13.1 °C -6.0 °C 80% 1004.3 hPa 4.0 km NNW 63.0 km/h / 17.5 m/s 72.2 km/h / 20.1 m/s 0.0 mm Snow Light Snow
1:51 PM -3.0 °C -11.8 °C -6.0 °C 80% 1004.6 hPa 11.3 km NW 44.4 km/h / 12.3 m/s 72.2 km/h / 20.1 m/s 0.0 mm Snow Light Snow
1:56 PM -2.8 °C -11.5 °C -5.6 °C 81% 1007.1 hPa 6.4 km NW 44.4 km/h / 12.3 m/s 63.0 km/h / 17.5 m/s 0.0 mm Snow Light Snow
2:05 PM -3.0 °C -11.1 °C -6.0 °C 80% 1004.6 hPa 3.2 km NW 37.0 km/h / 10.3 m/s 64.8 km/h / 18.0 m/s 0.0 mm Snow Light Snow
2:15 PM -3.0 °C -12.5 °C -6.0 °C 80% 1004.6 hPa 4.8 km NW 53.7 km/h / 14.9 m/s 63.0 km/h / 17.5 m/s 0.0 mm Snow Light Snow
2:56 PM -2.2 °C -11.0 °C -5.6 °C 78% 1007.8 hPa 8.0 km NW 48.2 km/h / 13.4 m/s 75.9 km/h / 21.1 m/s 0.0 mm Snow Light Snow
3:05 PM -3.0 °C -12.6 °C -6.0 °C 80% 1005.3 hPa 4.0 km NW 55.6 km/h / 15.4 m/s 79.6 km/h / 22.1 m/s 0.0 mm Snow Light Snow
3:14 PM -2.0 °C -11.5 °C -6.0 °C 74% 1005.6 hPa 11.3 km NW 59.3 km/h / 16.5 m/s 81.5 km/h / 22.6 m/s 0.0 mm Snow Light Snow
3:30 PM -3.0 °C -13.4 °C -6.0 °C 80% 1005.3 hPa 2.8 km NW 68.5 km/h / 19.0 m/s 90.7 km/h / 25.2 m/s 0.0 mm Snow Light Snow
3:42 PM -3.0 °C -13.3 °C -6.0 °C 80% 1005.6 hPa 4.8 km NW 66.7 km/h / 18.5 m/s 87.0 km/h / 24.2 m/s 0.0 mm Snow Light Snow
3:56 PM -3.3 °C -14.0 °C -6.1 °C 81% 1008.7 hPa 6.4 km NW 72.2 km/h / 20.1 m/s 92.6 km/h / 25.7 m/s 0.0 mm Snow Light Snow
4:08 PM -3.0 °C -13.4 °C -6.0 °C 80% 1006.0 hPa 4.0 km NW 68.5 km/h / 19.0 m/s 100.0 km/h / 27.8 m/s 0.0 mm Snow Light Snow
4:20 PM -4.0 °C -15.2 °C -6.0 °C 86% 1006.3 hPa 2.8 km NW 75.9 km/h / 21.1 m/s 94.5 km/h / 26.2 m/s 0.0 mm Snow Light Snow
4:43 PM -4.0 °C -14.9 °C -6.0 °C 86% 1006.7 hPa 1.2 km NW 70.4 km/h / 19.5 m/s 90.7 km/h / 25.2 m/s 0.0 mm Snow Light Snow
4:56 PM -4.4 °C -15.9 °C -6.7 °C 84% 1010.3 hPa 0.8 km NW 77.8 km/h / 21.6 m/s 92.6 km/h / 25.7 m/s 0.0 mm Fog , Snow Light Snow
5:22 PM -4.0 °C -15.1 °C -7.0 °C 80% 1008.7 hPa 0.4 km NNW 74.1 km/h / 20.6 m/s 88.9 km/h / 24.7 m/s 0.0 mm Fog , Snow Snow
5:43 PM -5.0 °C -15.5 °C -6.0 °C 93% 1009.7 hPa 0.4 km NNW 57.4 km/h / 15.9 m/s 81.5 km/h / 22.6 m/s N/A Fog , Snow Snow
5:56 PM -5.0 °C -15.7 °C -6.1 °C 92% 1013.3 hPa 0.4 km NNW 61.1 km/h / 17.0 m/s 83.3 km/h / 23.1 m/s 0.0 mm Fog , Snow Snow
6:14 PM -5.0 °C -16.0 °C -7.0 °C 86% 1010.7 hPa 0.8 km NNW 64.8 km/h / 18.0 m/s 81.5 km/h / 22.6 m/s 0.3 mm Fog , Snow Snow
6:46 PM -5.0 °C -16.0 °C -7.0 °C 86% 1012.1 hPa 1.2 km NNW 64.8 km/h / 18.0 m/s 85.2 km/h / 23.7 m/s 0.3 mm Snow Light Snow
6:48 PM -5.0 °C -16.1 °C -7.0 °C 86% 1012.1 hPa 1.6 km NNW 66.7 km/h / 18.5 m/s 85.2 km/h / 23.7 m/s 0.3 mm Snow Light Snow
6:56 PM -5.0 °C -16.0 °C -7.2 °C 85% 1015.6 hPa 2.0 km NNW 64.8 km/h / 18.0 m/s 81.5 km/h / 22.6 m/s 0.3 mm Snow Light Snow
7:29 PM -6.0 °C -16.6 °C -7.0 °C 93% 1013.4 hPa 4.0 km NNW 53.7 km/h / 14.9 m/s 74.1 km/h / 20.6 m/s 0.0 mm Snow Light Snow
7:33 PM -6.0 °C -16.4 °C -7.0 °C 93% 1013.4 hPa 4.8 km NNW 51.9 km/h / 14.4 m/s 68.5 km/h / 19.0 m/s 0.0 mm Snow Light Snow
7:56 PM -5.6 °C -16.0 °C -7.2 °C 89% 1017.3 hPa 6.4 km NNW 53.7 km/h / 14.9 m/s 68.5 km/h / 19.0 m/s 0.0 mm Snow Light Snow
8:21 PM -6.0 °C -16.3 °C -7.0 °C 93% 1014.8 hPa 2.8 km NNW 50.0 km/h / 13.9 m/s 64.8 km/h / 18.0 m/s 0.0 mm Snow Light Snow
8:34 PM -6.0 °C -16.4 °C -7.0 °C 93% 1015.1 hPa 2.0 km North 51.9 km/h / 14.4 m/s 66.7 km/h / 18.5 m/s 0.0 mm Snow Light Snow
8:56 PM -5.6 °C -15.6 °C -7.8 °C 85% 1019.3 hPa 2.8 km North 48.2 km/h / 13.4 m/s 59.3 km/h / 16.5 m/s 0.0 mm Snow Light Snow
9:08 PM -6.0 °C -15.6 °C -8.0 °C 86% 1016.1 hPa 3.2 km North 42.6 km/h / 11.8 m/s 61.1 km/h / 17.0 m/s 0.0 mm Snow Light Snow
9:30 PM -6.0 °C -13.7 °C -8.0 °C 86% 1016.5 hPa 2.8 km North 25.9 km/h / 7.2 m/s - 0.0 mm Snow Light Snow
9:56 PM -6.7 °C -15.6 °C -8.3 °C 89% 1020.8 hPa 2.4 km North 33.3 km/h / 9.3 m/s 57.4 km/h / 15.9 m/s 0.0 mm Snow Light Snow
10:11 PM -6.0 °C -14.5 °C -8.0 °C 86% 1017.5 hPa 4.8 km North 31.5 km/h / 8.7 m/s - 0.0 mm Snow Light Snow
10:24 PM -6.0 °C -15.1 °C -8.0 °C 86% 1017.5 hPa 9.7 km North 37.0 km/h / 10.3 m/s 48.2 km/h / 13.4 m/s 0.0 mm Snow Light Snow
10:56 PM -6.1 °C -13.9 °C -7.2 °C 92% 1021.2 hPa 4.8 km NNW 25.9 km/h / 7.2 m/s - 0.0 mm Snow Light Snow
11:05 PM -6.0 °C -16.1 °C -7.0 °C 93% 1017.8 hPa 3.2 km NNW 48.2 km/h / 13.4 m/s 55.6 km/h / 15.4 m/s 0.0 mm Snow Light Snow
11:21 PM -6.0 °C -15.3 °C -8.0 °C 86% 1018.2 hPa 6.4 km North 38.9 km/h / 10.8 m/s 53.7 km/h / 14.9 m/s 0.0 mm Snow Light Snow
11:37 PM -7.0 °C -16.2 °C -8.0 °C 93% 1018.5 hPa 3.2 km North 35.2 km/h / 9.8 m/s 51.9 km/h / 14.4 m/s 0.0 mm Snow Light Snow
11:43 PM -7.0 °C -16.8 °C -8.0 °C 93% 1018.5 hPa 2.4 km North 40.7 km/h / 11.3 m/s 50.0 km/h / 13.9 m/s 0.0 mm Snow Light Snow
11:56 PM -6.7 °C -16.6 °C -8.9 °C 85% 1022.4 hPa 4.0 km North 42.6 km/h / 11.8 m/s 53.7 km/h / 14.9 m/s 0.0 mm Snow Light Snow
11:59 PM -7.0 °C -16.4 °C -9.0 °C 86% 1018.8 hPa 4.8 km North 37.0 km/h / 10.3 m/s 53.7 km/h / 14.9 m/s 0.0 mm Snow Light Snow